Location: *
(13.2257°S, 48.7193°W)
Time: 12:43:18
(UTC+00:00)

Cosmos 1607 - Pass Details

Date: 13 February 2026
Orbit: 922 x 980 km, 65.0° (Epoch: 11 March)

Event Time Altitude Azimuth Distance (km) Brightness Sun altitude
Exits shadow 08:08:06 22° 302° (WNW) 1,976 5.0 -16.0°
Maximum altitude 08:11:40 41° 246° (WSW) 1,388 4.5 -15.1°
Drops below altitude 10° 08:17:39 10° 176° (S) 2,732 6.6 -13.8°
Sets 08:20:24 0° 169° (S) 3,679 7.4 -13.1°
